Weather History for Hurlburt Field, FL

Change the Weather History Date:

Thursday, December 13, 2012

  Actual Average Record
Temperature  
Mean Temperature 48 °F -  
Max Temperature 60 °F 61 °F 77 °F (2001)
Min Temperature 36 °F 42 °F 27 °F (2010)
Degree Days  
Heating Degree Days 17    
Moisture  
Dew Point 43 °F    
Average Humidity 90    
Maximum Humidity 100    
Minimum Humidity 68    
Precipitation  
Precipitation 0.00 in - - ()
Sea Level Pressure  
Sea Level Pressure 30.27 in    
Wind  
Wind Speed 8 mph (NNE)    
Max Wind Speed 14 mph    
Max Gust Speed -    
Visibility 10 miles    
Events      
Averages and records for this station are not official NWS values.
T = Trace of Precipitation, MM = Missing Value Source: NWS Daily Summary

Daily Weather History Graph

Daily Weather History Graph

Search for Another Location

Airport:

Trip Planner

Search our weather history database for the weather conditions in past years. The results will help you decide how hot, cold, wet, or windy it might be!

Date:

Astronomy

Dec. 13, 2012 Rise Set
Actual Time 6:35 AM CST 4:47 PM CST
Civil Twilight 6:08 AM CST 5:13 PM CST
Nautical Twilight 5:38 AM CST 5:43 PM CST
Astronomical Twilight 5:09 AM CST 6:13 PM CST
Moon 6:44 AM CST (12/13) 5:27 PM CST (12/13)
Length of Visible Light 11h 05m
Length of Day
10h 12m
Waxing Crescent, 0% of the Moon is Illuminated
Dec 13
Waxing Crescent
Dec 19
First Quarter
Dec 28
Full
Jan 4
Last Quarter
Jan 11
New

Hourly Weather History & Observations

Time (CST) Temp. Windchill Dew Point Humidity Pressure Visibility Wind Dir Wind Speed Gust Speed Precip Events Conditions
12:55 AM 36.3 °F 30.1 °F 35.8 °F 98% 30.23 in 10.0 mi North 8.1 mph - N/A   Clear
1:55 AM 38.7 °F 32.4 °F 37.2 °F 95% 30.24 in 10.0 mi North 9.2 mph - N/A   Clear
2:55 AM 37.9 °F 30.9 °F 37.0 °F 97% 30.24 in 10.0 mi North 10.4 mph - N/A   Clear
3:55 AM 36.1 °F 29.9 °F 35.6 °F 98% 30.24 in 10.0 mi North 8.1 mph - N/A   Clear
4:55 AM 38.1 °F 32.3 °F 37.9 °F 99% 30.25 in 10.0 mi NNE 8.1 mph - N/A   Clear
5:55 AM 38.5 °F 33.4 °F 38.5 °F 100% 30.25 in 10.0 mi NNE 6.9 mph - N/A   Clear
6:55 AM 39.0 °F 34.8 °F 39.0 °F 100% 30.28 in 10.0 mi NE 5.8 mph - N/A   Clear
7:55 AM 42.1 °F 37.1 °F 41.7 °F 99% 30.30 in 10.0 mi North 8.1 mph - N/A   Clear
8:55 AM 47.3 °F - 45.0 °F 92% 30.30 in 10.0 mi NNE 13.8 mph - N/A   Clear
9:55 AM 48.6 °F - 45.0 °F 87% 30.32 in 10.0 mi North 12.7 mph - N/A   Clear
10:55 AM 49.3 °F - 45.7 °F 87% 30.32 in 10.0 mi NNE 9.2 mph - N/A   Mostly Cloudy
11:50 AM 53.6 °F - 48.2 °F 82% 30.30 in 10.0 mi North 9.2 mph - N/A   Mostly Cloudy
11:55 AM 53.1 °F - 47.5 °F 81% 30.30 in 10.0 mi Variable 5.8 mph - N/A   Mostly Cloudy
11:58 AM 53.6 °F - 48.2 °F 82% 30.30 in 10.0 mi North 6.9 mph - N/A   Scattered Clouds
12:55 PM 57.7 °F - 48.9 °F 72% 30.27 in 10.0 mi NE 9.2 mph - N/A   Clear
1:55 PM 59.7 °F - 49.1 °F 68% 30.24 in 10.0 mi ENE 9.2 mph - N/A   Clear
2:55 PM 60.3 °F - 50.2 °F 69% 30.23 in 10.0 mi NE 9.2 mph - N/A   Clear
3:55 PM 59.0 °F - 49.3 °F 70% 30.24 in 10.0 mi ENE 6.9 mph - N/A   Clear
4:55 PM 54.5 °F - 47.8 °F 78% 30.25 in 10.0 mi ENE 5.8 mph - N/A   Clear
5:55 PM 51.3 °F - 47.1 °F 86% 30.25 in 10.0 mi ENE 4.6 mph - N/A   Clear
6:55 PM 46.9 °F - 46.0 °F 97% 30.27 in 10.0 mi Calm Calm - N/A   Clear
7:55 PM 42.8 °F 40.1 °F 42.6 °F 99% 30.29 in 10.0 mi North 4.6 mph - N/A   Clear
8:55 PM 41.5 °F - 41.5 °F 100% 30.30 in 10.0 mi Calm Calm - N/A   Clear
9:55 PM 39.9 °F 36.7 °F 39.9 °F 100% 30.29 in 10.0 mi NNE 4.6 mph - N/A   Clear
10:55 PM 38.7 °F 36.3 °F 38.7 °F 100% 30.30 in 10.0 mi North 3.5 mph - N/A   Clear
11:55 PM 38.3 °F 33.9 °F 38.3 °F 100% 30.30 in 10.0 mi NNE 5.8 mph - N/A   Clear